CPA852 WATO-WIII

Flight info

Callsign CPA852
Flight time N/A
Altitude 41000
Route WATO/35 N0484F400 TOGE1A TOGEM W42 MUBOT DCT DULOS T20 OKANG T4 FARIZ T6 KURUS DCT WIII/07R
Aircraft A359/H-A359/L

Departure

Time N/A
Airport Komodo Airport (WATO)

Arrival

Time 2026-04-27 15:39
Airport Soekarno-Hatta International Airport (WIII)
Time Latitude Longitude Altitude Speed Heading
2026-04-27 14:55 -5.89105 111.04194 32883 ft 521 kts 263°
2026-04-27 14:55 -5.89563 111.00539 32884 ft 521 kts 263°
2026-04-27 14:56 -5.90416 110.93315 32882 ft 521 kts 263°
2026-04-27 14:56 -5.91229 110.86070 32882 ft 522 kts 264°
2026-04-27 14:57 -5.92029 110.78819 32882 ft 522 kts 264°
2026-04-27 14:57 -5.92830 110.71569 32882 ft 522 kts 264°
2026-04-27 14:58 -5.93633 110.64312 32880 ft 523 kts 264°
2026-04-27 14:58 -5.94431 110.57090 32883 ft 523 kts 264°
2026-04-27 14:59 -5.95236 110.49812 32883 ft 523 kts 264°
2026-04-27 14:59 -5.96037 110.42547 32882 ft 523 kts 264°
2026-04-27 15:00 -5.96484 110.35251 32887 ft 523 kts 269°
2026-04-27 15:00 -5.96547 110.27929 32885 ft 523 kts 270°
2026-04-27 15:01 -5.96526 110.20616 32885 ft 523 kts 271°
2026-04-27 15:01 -5.96505 110.13356 32885 ft 522 kts 271°
2026-04-27 15:02 -5.96498 110.06060 32883 ft 522 kts 271°
2026-04-27 15:02 -5.96495 109.98754 32883 ft 523 kts 271°
2026-04-27 15:03 -5.96492 109.91382 32886 ft 531 kts 271°
2026-04-27 15:03 -5.96487 109.83933 32886 ft 534 kts 271°
2026-04-27 15:04 -5.96481 109.76461 32887 ft 534 kts 271°
2026-04-27 15:04 -5.96474 109.69038 32884 ft 534 kts 271°
2026-04-27 15:05 -5.96466 109.61573 32882 ft 534 kts 271°
2026-04-27 15:05 -5.96457 109.54119 32884 ft 533 kts 271°
2026-04-27 15:06 -5.96447 109.46673 32883 ft 533 kts 270°
2026-04-27 15:06 -5.96436 109.39241 32883 ft 533 kts 270°
2026-04-27 15:07 -5.96425 109.31785 32883 ft 533 kts 270°
2026-04-27 15:07 -5.96413 109.24336 32882 ft 533 kts 270°
2026-04-27 15:08 -5.96399 109.16884 32885 ft 533 kts 270°
2026-04-27 15:08 -5.96384 109.09488 32885 ft 533 kts 270°
2026-04-27 15:09 -5.96369 109.02041 32883 ft 532 kts 270°
2026-04-27 15:09 -5.96352 108.94595 32883 ft 532 kts 270°
2026-04-27 15:10 -5.96334 108.87154 32884 ft 533 kts 270°
2026-04-27 15:10 -5.96318 108.80964 32882 ft 533 kts 270°
2026-04-27 15:11 -5.96295 108.72323 32882 ft 533 kts 270°
2026-04-27 15:11 -5.96274 108.64871 32883 ft 533 kts 270°
2026-04-27 15:12 -5.96252 108.57416 32884 ft 533 kts 270°
2026-04-27 15:12 -5.96233 108.51213 32884 ft 534 kts 270°
2026-04-27 15:13 -5.96214 108.43750 32886 ft 534 kts 270°
2026-04-27 15:13 -5.96211 108.36284 32881 ft 534 kts 270°
2026-04-27 15:14 -5.96206 108.28823 32882 ft 534 kts 270°
2026-04-27 15:14 -5.96198 108.21367 32882 ft 533 kts 270°
2026-04-27 15:15 -5.96189 108.13930 32881 ft 533 kts 270°
2026-04-27 15:15 -5.96179 108.06492 32882 ft 529 kts 270°
2026-04-27 15:16 -5.96174 108.02866 32879 ft 511 kts 270°
2026-04-27 15:16 -5.96169 107.99359 32876 ft 493 kts 270°
2026-04-27 15:16 -5.96166 107.96007 32879 ft 477 kts 270°
2026-04-27 15:16 -5.96167 107.92682 32881 ft 466 kts 270°
2026-04-27 15:17 -5.96169 107.86233 32886 ft 464 kts 270°
2026-04-27 15:17 -5.96169 107.79747 32881 ft 462 kts 271°
2026-04-27 15:18 -5.96169 107.76572 32875 ft 448 kts 271°
2026-04-27 15:18 -5.96170 107.73487 32741 ft 433 kts 271°
2026-04-27 15:18 -5.96169 107.70534 32369 ft 413 kts 270°
2026-04-27 15:18 -5.96168 107.67699 31711 ft 402 kts 270°
2026-04-27 15:19 -5.96166 107.64843 30841 ft 412 kts 270°
2026-04-27 15:19 -5.96168 107.61969 30444 ft 410 kts 270°
2026-04-27 15:19 -5.96169 107.59118 30113 ft 406 kts 270°
2026-04-27 15:19 -5.96169 107.56288 29718 ft 403 kts 270°
2026-04-27 15:20 -5.96169 107.53479 29285 ft 401 kts 270°
2026-04-27 15:20 -5.96169 107.50729 28867 ft 398 kts 270°
2026-04-27 15:20 -5.96169 107.47944 28447 ft 396 kts 270°
2026-04-27 15:20 -5.96169 107.45191 28041 ft 394 kts 270°
2026-04-27 15:21 -5.96168 107.42440 27631 ft 392 kts 269°
2026-04-27 15:21 -5.96168 107.39717 27232 ft 390 kts 269°
2026-04-27 15:21 -5.96168 107.37003 26838 ft 388 kts 269°
2026-04-27 15:21 -5.96167 107.34298 26447 ft 385 kts 269°
2026-04-27 15:22 -5.96166 107.31608 26061 ft 384 kts 269°
2026-04-27 15:22 -5.96164 107.28937 25677 ft 382 kts 269°
2026-04-27 15:22 -5.96160 107.26278 25299 ft 380 kts 269°
2026-04-27 15:22 -5.96155 107.23631 24937 ft 378 kts 269°
2026-04-27 15:23 -5.96150 107.20998 24568 ft 376 kts 269°
2026-04-27 15:23 -5.96146 107.18373 24192 ft 374 kts 269°
2026-04-27 15:23 -5.96141 107.15800 23836 ft 373 kts 269°
2026-04-27 15:23 -5.96137 107.13200 23477 ft 371 kts 269°
2026-04-27 15:24 -5.96132 107.10615 23038 ft 369 kts 269°
2026-04-27 15:24 -5.96128 107.08035 22609 ft 367 kts 269°
2026-04-27 15:24 -5.96123 107.05506 21936 ft 358 kts 269°
2026-04-27 15:24 -5.96119 107.03018 21203 ft 355 kts 269°
2026-04-27 15:25 -5.96116 107.00546 20484 ft 352 kts 269°
2026-04-27 15:25 -5.96110 106.98097 19791 ft 348 kts 269°
2026-04-27 15:25 -5.96103 106.95676 19106 ft 345 kts 269°
2026-04-27 15:25 -5.96096 106.93311 18451 ft 341 kts 269°
2026-04-27 15:26 -5.96089 106.90939 17734 ft 338 kts 269°
2026-04-27 15:26 -5.96082 106.88586 16974 ft 334 kts 269°
2026-04-27 15:26 -5.96075 106.86263 16239 ft 330 kts 269°
2026-04-27 15:26 -5.96069 106.83965 15523 ft 327 kts 269°
2026-04-27 15:27 -5.96062 106.81699 14825 ft 323 kts 269°
2026-04-27 15:27 -5.96097 106.79459 14135 ft 318 kts 263°
2026-04-27 15:27 -5.96625 106.77329 13472 ft 312 kts 247°
2026-04-27 15:27 -5.97435 106.75315 13033 ft 312 kts 245°
2026-04-27 15:28 -5.98267 106.73313 12877 ft 308 kts 245°
2026-04-27 15:28 -5.99082 106.71331 12876 ft 307 kts 245°
2026-04-27 15:28 -5.99884 106.69370 12615 ft 307 kts 246°
2026-04-27 15:28 -6.00685 106.67401 12140 ft 301 kts 246°
2026-04-27 15:29 -6.01463 106.65482 11658 ft 290 kts 246°
2026-04-27 15:29 -6.02209 106.63641 11154 ft 280 kts 246°
2026-04-27 15:29 -6.02938 106.61841 10577 ft 276 kts 246°
2026-04-27 15:29 -6.03655 106.60074 10002 ft 271 kts 246°
2026-04-27 15:30 -6.04363 106.58329 9399 ft 268 kts 246°
2026-04-27 15:30 -6.05063 106.56604 8777 ft 264 kts 247°
2026-04-27 15:30 -6.05749 106.54902 8173 ft 262 kts 247°
2026-04-27 15:30 -6.06427 106.53218 7578 ft 259 kts 247°
2026-04-27 15:31 -6.07102 106.51545 6951 ft 258 kts 247°
2026-04-27 15:31 -6.07779 106.49867 6263 ft 260 kts 247°
2026-04-27 15:31 -6.08461 106.48176 5538 ft 261 kts 247°
2026-04-27 15:31 -6.09145 106.46481 4826 ft 262 kts 247°
2026-04-27 15:32 -6.09829 106.44787 4095 ft 261 kts 247°
2026-04-27 15:32 -6.10597 106.43149 3376 ft 258 kts 235°
2026-04-27 15:32 -6.11973 106.42051 2673 ft 253 kts 199°
2026-04-27 15:32 -6.13673 106.41952 2184 ft 241 kts 167°
2026-04-27 15:33 -6.15224 106.42378 1997 ft 219 kts 163°
2026-04-27 15:33 -6.16507 106.42962 1989 ft 192 kts 144°
2026-04-27 15:33 -6.17349 106.43948 1991 ft 184 kts 116°
2026-04-27 15:33 -6.17598 106.45174 1988 ft 178 kts 90°
2026-04-27 15:34 -6.17565 106.46418 1991 ft 179 kts 87°
2026-04-27 15:34 -6.17507 106.47670 1986 ft 180 kts 88°
2026-04-27 15:34 -6.17441 106.48916 1984 ft 175 kts 85°
2026-04-27 15:34 -6.17150 106.50077 1990 ft 171 kts 70°
2026-04-27 15:35 -6.16715 106.51186 1988 ft 169 kts 68°
2026-04-27 15:35 -6.16266 106.52279 1992 ft 169 kts 68°
2026-04-27 15:35 -6.15807 106.53371 1993 ft 169 kts 65°
2026-04-27 15:35 -6.15340 106.54424 1971 ft 156 kts 69°
2026-04-27 15:36 -6.14976 106.55386 1877 ft 142 kts 68°
2026-04-27 15:36 -6.14613 106.56295 1688 ft 138 kts 68°
2026-04-27 15:36 -6.14255 106.57188 1514 ft 137 kts 68°
2026-04-27 15:36 -6.13907 106.58062 1357 ft 137 kts 68°
2026-04-27 15:37 -6.13555 106.58946 1163 ft 136 kts 68°
2026-04-27 15:37 -6.13206 106.59825 993 ft 135 kts 68°
2026-04-27 15:37 -6.12859 106.60702 814 ft 135 kts 68°
2026-04-27 15:37 -6.12512 106.61580 646 ft 135 kts 68°
2026-04-27 15:38 -6.12165 106.62458 468 ft 135 kts 68°
2026-04-27 15:38 -6.11822 106.63332 316 ft 134 kts 69°
2026-04-27 15:38 -6.11479 106.64213 155 ft 135 kts 68°
2026-04-27 15:38 -6.11132 106.65075 54 ft 135 kts 67°
2026-04-27 15:39 -6.10807 106.65884 41 ft 106 kts 69°
2026-04-27 15:39 -6.10604 106.66411 35 ft 50 kts 70°
2026-04-27 15:39 -6.10476 106.66720 34 ft 46 kts 68°
2026-04-27 15:39 -6.10408 106.66932 34 ft 19 kts 92°
2026-04-27 15:40 -6.10471 106.66993 34 ft 13 kts 156°
2026-04-27 15:40 -6.10513 106.67009 34 ft 7 kts 159°
2026-04-27 15:40 -6.10576 106.67033 35 ft 13 kts 159°
2026-04-27 15:40 -6.10650 106.67005 35 ft 12 kts 240°
2026-04-27 15:41 -6.10691 106.66923 35 ft 14 kts 247°
2026-04-27 15:41 -6.10731 106.66825 35 ft 16 kts 249°
2026-04-27 15:41 -6.10775 106.66708 35 ft 19 kts 249°
2026-04-27 15:41 -6.10831 106.66566 36 ft 28 kts 248°
2026-04-27 15:42 -6.10905 106.66381 37 ft 29 kts 248°
2026-04-27 15:42 -6.10979 106.66193 38 ft 29 kts 248°
2026-04-27 15:42 -6.11053 106.66006 39 ft 29 kts 248°
2026-04-27 15:42 -6.11129 106.65818 39 ft 29 kts 248°
2026-04-27 15:43 -6.11192 106.65658 39 ft 15 kts 245°
2026-04-27 15:43 -6.11274 106.65626 39 ft 5 kts 164°
2026-04-27 15:43 -6.11275 106.65626 39 ft 0 kts 163°
2026-04-27 15:48 -6.11278 106.65627 39 ft 3 kts 163°
2026-04-27 15:48 -6.11323 106.65642 37 ft 14 kts 159°
2026-04-27 15:49 -6.11437 106.65839 38 ft 16 kts 122°
2026-04-27 15:49 -6.11529 106.65902 39 ft 17 kts 153°
2026-04-27 15:49 -6.11639 106.65956 39 ft 18 kts 156°
2026-04-27 15:49 -6.11742 106.65991 39 ft 8 kts 181°
2026-04-27 15:50 -6.11753 106.65982 39 ft 0 kts 231°
2026-04-27 15:50 -6.11766 106.65957 39 ft 5 kts 250°
2026-04-27 15:50 -6.11772 106.65943 39 ft 0 kts 248°
2026-04-27 15:50 -6.11771 106.65943 39 ft 0 kts 248°